TimeCST,TemperatureF,Dew PointF,Humidity,Sea Level PressureIn,VisibilityMPH,Wind Direction,Wind SpeedMPH,Gust SpeedMPH,PrecipitationIn,Events,Conditions,WindDirDegrees,DateUTC
12:15 AM,50.0,44.6,82,29.88,10.0,South,5.8,-,N/A,,Clear,190,2012-12-07 06:15:00
12:35 AM,48.2,44.6,87,29.88,10.0,South,4.6,-,N/A,,Clear,180,2012-12-07 06:35:00
12:55 AM,48.2,44.6,87,29.87,10.0,SSE,3.5,-,N/A,,Partly Cloudy,160,2012-12-07 06:55:00
1:16 AM,46.4,44.6,93,29.87,10.0,Calm,Calm,-,N/A,,Mostly Cloudy,0,2012-12-07 07:16:00
1:35 AM,46.4,42.8,87,29.87,8.0,Calm,Calm,-,N/A,,Mostly Cloudy,0,2012-12-07 07:35:00
1:55 AM,46.4,44.6,93,29.87,7.0,Calm,Calm,-,N/A,,Overcast,0,2012-12-07 07:55:00
2:15 AM,46.4,44.6,93,29.88,7.0,Calm,Calm,-,N/A,,Overcast,0,2012-12-07 08:15:00
2:36 AM,48.2,44.6,87,29.88,9.0,Calm,Calm,-,N/A,,Overcast,0,2012-12-07 08:36:00
2:55 AM,48.2,44.6,87,29.88,10.0,Calm,Calm,-,N/A,,Overcast,0,2012-12-07 08:55:00
3:15 AM,48.2,44.6,87,29.87,10.0,Calm,Calm,-,N/A,,Overcast,0,2012-12-07 09:15:00
3:55 AM,48.2,44.6,87,29.86,8.0,Calm,Calm,-,N/A,,Overcast,0,2012-12-07 09:55:00
4:15 AM,48.2,44.6,87,29.86,8.0,Calm,Calm,-,N/A,,Overcast,0,2012-12-07 10:15:00
4:35 AM,48.2,44.6,87,29.86,8.0,SE,3.5,-,N/A,,Overcast,140,2012-12-07 10:35:00
4:55 AM,48.2,44.6,87,29.85,8.0,SE,3.5,-,N/A,,Overcast,140,2012-12-07 10:55:00
5:15 AM,48.2,44.6,87,29.85,8.0,Calm,Calm,-,N/A,,Overcast,0,2012-12-07 11:15:00
5:35 AM,50.0,46.4,87,29.86,10.0,Calm,Calm,-,N/A,,Overcast,0,2012-12-07 11:35:00
6:15 AM,50.0,46.4,87,29.86,10.0,Calm,Calm,-,N/A,,Overcast,0,2012-12-07 12:15:00
6:35 AM,50.0,46.4,87,29.86,10.0,Calm,Calm,-,N/A,,Overcast,0,2012-12-07 12:35:00
6:56 AM,50.0,46.4,87,29.86,10.0,ESE,3.5,-,N/A,,Overcast,110,2012-12-07 12:56:00
7:15 AM,50.0,46.4,87,29.87,10.0,Calm,Calm,-,N/A,,Overcast,0,2012-12-07 13:15:00
7:35 AM,51.8,46.4,82,29.87,9.0,Calm,Calm,-,N/A,,Overcast,0,2012-12-07 13:35:00
7:56 AM,51.8,46.4,82,29.87,9.0,Calm,Calm,-,N/A,,Overcast,0,2012-12-07 13:56:00
8:15 AM,51.8,46.4,82,29.87,9.0,Calm,Calm,-,N/A,,Overcast,0,2012-12-07 14:15:00
8:35 AM,51.8,46.4,82,29.87,9.0,Calm,Calm,-,N/A,,Overcast,0,2012-12-07 14:35:00
8:56 AM,51.8,46.4,82,29.88,9.0,Calm,Calm,-,N/A,,Overcast,0,2012-12-07 14:56:00
9:15 AM,51.8,46.4,82,29.88,8.0,Calm,Calm,-,N/A,,Overcast,0,2012-12-07 15:15:00
9:35 AM,53.6,46.4,77,29.89,9.0,Calm,Calm,-,N/A,,Overcast,0,2012-12-07 15:35:00
10:15 AM,53.6,48.2,82,29.88,8.0,SSE,4.6,-,N/A,,Overcast,160,2012-12-07 16:15:00
10:35 AM,55.4,48.2,77,29.87,9.0,South,3.5,-,N/A,,Overcast,180,2012-12-07 16:35:00
10:55 AM,55.4,48.2,77,29.87,8.0,South,3.5,-,N/A,,Overcast,170,2012-12-07 16:55:00
11:35 AM,55.4,48.2,77,29.85,8.0,Calm,Calm,-,N/A,,Overcast,0,2012-12-07 17:35:00
11:55 AM,55.4,48.2,77,29.84,8.0,South,3.5,-,N/A,,Overcast,180,2012-12-07 17:55:00
12:15 PM,57.2,48.2,72,29.83,8.0,South,3.5,-,N/A,,Overcast,190,2012-12-07 18:15:00
12:35 PM,57.2,50.0,77,29.82,8.0,South,3.5,-,N/A,,Overcast,180,2012-12-07 18:35:00
12:55 PM,57.2,50.0,77,29.82,9.0,SSW,4.6,-,N/A,,Overcast,210,2012-12-07 18:55:00
1:15 PM,57.2,50.0,77,29.81,9.0,SSW,4.6,-,N/A,,Overcast,200,2012-12-07 19:15:00
1:55 PM,57.2,50.0,77,29.80,5.0,SW,6.9,-,N/A,,Overcast,230,2012-12-07 19:55:00
2:15 PM,55.4,51.8,88,29.80,4.0,Calm,Calm,-,N/A,,Overcast,0,2012-12-07 20:15:00
2:35 PM,57.2,51.8,82,29.80,6.0,Calm,Calm,-,N/A,,Overcast,0,2012-12-07 20:35:00
2:56 PM,57.2,51.8,82,29.80,8.0,Calm,Calm,-,N/A,,Overcast,0,2012-12-07 20:56:00
3:15 PM,57.2,51.8,82,29.80,9.0,Calm,Calm,-,N/A,,Overcast,0,2012-12-07 21:15:00
3:35 PM,57.2,51.8,82,29.80,9.0,Calm,Calm,-,N/A,,Overcast,0,2012-12-07 21:35:00
4:15 PM,57.2,51.8,82,29.81,10.0,Calm,Calm,-,N/A,,Overcast,0,2012-12-07 22:15:00
4:35 PM,57.2,51.8,82,29.81,9.0,Calm,Calm,-,N/A,,Overcast,0,2012-12-07 22:35:00
4:55 PM,57.2,51.8,82,29.81,8.0,Calm,Calm,-,N/A,,Overcast,0,2012-12-07 22:55:00
5:35 PM,55.4,51.8,88,29.82,9.0,Calm,Calm,-,N/A,,Overcast,0,2012-12-07 23:35:00
5:55 PM,55.4,50.0,82,29.82,8.0,Calm,Calm,-,N/A,,Overcast,0,2012-12-07 23:55:00
6:15 PM,55.4,51.8,88,29.83,8.0,Calm,Calm,-,N/A,,Overcast,0,2012-12-08 00:15:00
6:35 PM,55.4,50.0,82,29.83,8.0,Calm,Calm,-,N/A,,Overcast,0,2012-12-08 00:35:00
6:55 PM,55.4,50.0,82,29.83,8.0,Calm,Calm,-,N/A,,Overcast,0,2012-12-08 00:55:00
7:15 PM,55.4,50.0,82,29.83,8.0,Calm,Calm,-,N/A,,Overcast,0,2012-12-08 01:15:00
7:55 PM,53.6,50.0,88,29.84,7.0,Calm,Calm,-,N/A,,Overcast,0,2012-12-08 01:55:00
8:15 PM,53.6,50.0,88,29.84,7.0,Calm,Calm,-,N/A,,Overcast,0,2012-12-08 02:15:00
8:36 PM,53.6,50.0,88,29.84,7.0,Calm,Calm,-,N/A,,Overcast,0,2012-12-08 02:36:00
8:55 PM,53.6,50.0,88,29.85,5.0,Calm,Calm,-,N/A,,Overcast,0,2012-12-08 02:55:00
9:15 PM,53.6,50.0,88,29.85,7.0,Calm,Calm,-,N/A,,Overcast,0,2012-12-08 03:15:00
9:55 PM,53.6,50.0,88,29.86,5.0,Calm,Calm,-,N/A,,Overcast,0,2012-12-08 03:55:00
10:15 PM,53.6,48.2,82,29.86,5.0,Calm,Calm,-,N/A,,Overcast,0,2012-12-08 04:15:00
10:55 PM,53.6,50.0,88,29.87,5.0,Calm,Calm,-,N/A,,Overcast,0,2012-12-08 04:55:00
11:15 PM,53.6,50.0,88,29.87,5.0,Calm,Calm,-,N/A,,Overcast,0,2012-12-08 05:15:00
11:35 PM,53.6,50.0,88,29.87,4.0,Calm,Calm,-,N/A,,Overcast,0,2012-12-08 05:35:00
11:56 PM,53.6,50.0,88,29.88,3.0,Calm,Calm,-,N/A,,Overcast,0,2012-12-08 05:56:00